Don’t wait…take 8!

Register now!

Taking shorter 8-week classes can put you on the

fast track to success!

 

                                                                                                                                                                                            Audio Available Video or Transcript Click Here

Need more information?  We would like to connect with you!  Please provide the information below and a San Juan College respentative will contact you.  

Sign up for these 8-week classes!

*Please note classes will be updated each Monday.
Have questions?  Contact admissions at 505-566-3545 or admissions@sanjuancollege.edu

SubjectCourse NumberSectionShort TitleStart DateAvailable SeatsDaysStart TimeLocation
ITCT141601Administering Windows Server3/25/201914INET
ITCT142601Config Advanced Windows Server4/15/201917INET
NRSG231001ADN Capstone4/1/201917MTWTHF09:00AMMAIN
PHED155004First Aid/CPR4/12/20196FS09:00AMMAIN
SURG233601Art of Teamwork in Surgery3/25/20193INET
SURG234601Prin of Surgical Assisting3/25/20194INET
SOCI242601Soci of Health Care Global4/1/201919INET
SOCI2426H1HNRS:Soci of HealthCareGlobal4/1/201919INET
CDLT154318CDL Class B Training3/18/201916MTWTHF08:00AMMAIN
CDLT170318CDLT Composite Driving3/18/20191MTWTHF08:00AMMAIN
ENER110329Oil & Gas Employee Immersion3/29/201920F08:00AMOTHER
ENER133314Compressor Valves3/14/201919TH08:00AMMAIN
ENER135328Emissions Detect/Analysis/Cntr3/28/201919TH08:00AMMAIN
ENER137412Reading Measurement Tools4/12/201918F08:00AMMAIN
ENER138426Rotary Compressor Concepts4/26/201919F08:00AMMAIN
ENER139419Shaft Alignment4/19/201919F08:00AMMAIN
ENER141315Intro to Disp Well Operations3/15/201921F08:00AMMAIN
ENER214405Why We Use Compression4/5/201919F08:00AMMAIN
ENER216418Adv Liquid & Gas Measurement4/18/201918TH08:00AMMAIN
ENER218411Gas Measurement Witnessing4/11/201919TH08:00AMMAIN
ENER219329Motor Valves and Controllers3/29/201915F08:00AMMAIN
ENER220502Psi and Temperature Control5/2/201914TH08:00AMMAIN
ENER250404Energy Industry Economics4/4/201913TH08:00AMMAIN
ENER251425Production Chemicals4/25/201913TH08:00AMMAIN
INST210001Process Control4/15/20195MTWTH01:00PMMAIN
INST268001NEC and Industrial Wiring4/15/20191MTWTH01:00PMMAIN
INST268002NEC and Industrial Wiring4/15/20191MTWTH05:00PMMAIN
IPOP248012Gas Processing & Petroleum Ref4/10/201915MTWTH05:15PMMAIN
IPOP266010Process Module Troubleshooting4/10/201911TWTHF08:00AMMAIN
LSOP230316Theory of Line Locating3/16/201919S08:00AMMAIN
LSOP230413Theory of Line Locating4/13/201919S08:00AMMAIN
MECH280011Maintenance Project4/10/201914MTWTH12:30PMMAIN
SAFE114M27HAZ WOPER 24 Hour3/27/201918WTHF08:00AMMAIN
SAFE139M18Composite Safety Training3/18/201914MTWTHF08:00AMMAIN
TEMS213001Doing Business on Tribal Lands4/8/201917MTWTHF08:00AMMAIN
TEMS213408Doing Business on Tribal Lands4/8/201924MTWTHF08:00AMMAIN
ASEP135001GM Vehicle Networks4/11/201912MTWTHF07:00AMMAIN
ASEP140001GM Drivability4/24/201912MTWTHF07:00AMMAIN
ASEP140001GM Drivability Lab4/24/201912MTWTHF08:31AM
CAPP135001Chrysler Vehicle Networks4/11/201914MTWTHF07:00AMMAIN
CAPP140001Chrysler Drivability Diagnosis4/24/201924MTWTHF07:00AMMAIN
CAPP140001Chrysler Drivability Diagnosis Lab4/24/201924MTWTHF08:31AM
FIRE112Z01Fighter 1 & 2 Combination3/21/20194MTWTHF10:00AMFARM
FIRE112Z01Fighter 1 & 2 Combination Lab3/21/20194MTWTHF11:00AM
FIRE151Z01Intermediate Fire Lab4/27/20196FARM
FIRE216001Fire Instructor II4/15/201920FARM
TTEN135001Toyota Vehicle Networks4/11/20195MTWTHF12:00PMMAIN
TTEN140001Driveability4/24/20195MTWTHF12:00PMMAIN
TTEN140001Driveability Lab4/24/20195MTWTHF01:31PM